Probability
6 0 0 3 6 6 6 3 3 3 3 3 0 0 0 0 0 0 0 0 0 0 0 0 3 0 0 0 3 0 0 0 0 0 0 0 0 0 0 0 0 0 0
3 0 0 0 3 6 3 3 3 3 3 3 0 0 0 0 0 0 0 0 0 0 0 0 0 3 0 0 0 0 0 0 0 0 0 0 0 0 0 0 0 0 0
3 0 0 0 0 3 3 3 3 3 3 3 0 0 0 0 0 0 0 0 0 0 0 0 0 0 3 0 0 0 0 0 0 0 0 0 0 0 0 0 0 0 0
3 0 0 0 0 0 3 3 3 3 3 3 0 0 0 0 0 0 0 0 0 0 0 0 0 0 3 0 0 0 0 0 0 0 0 0 0 0 0 0 0 0 0
3 3 3 3 3 3 3 3 3 3 3 3 0 0 0 0 0 0 0 0 0 0 0 0 0 0 0 3 0 0 0 0 0 0 0 0 0 0 0 0 0 0 0
3 3 3 3 3 3 3 3 0 0 0 3 0 0 0 0 0 0 0 0 0 0 0 0 0 0 0 0 0 0 0 0 0 0 0 0 0 0 0 0 0 0 0
3 3 3 3 3 3 3 3 0 0 0 0 0 0 0 0 0 0 0 0 0 0 0 0 0 0 0 0 0 0 3 0 0 0 0 0 0 0 0 0 0 0 0
3 0 6 3 3 3 3 0 0 0 0 0 0 0 0 0 0 0 0 0 0 0 0 0 0 0 0 0 0 0 0 3 0 0 0 0 0 0 0 0 0 0 0
3 3 3 6 3 3 3 3 0 0 0 0 0 0 0 0 0 0 0 0 0 0 0 0 0 0 0 0 0 0 0 0 0 0 0 0 0 0 0 0 0 0 0
3 3 3 3 3 3 3 0 0 0 0 0 0 0 0 0 0 0 0 0 0 0 0 0 0 0 0 0 0 0 0 0 0 0 0 0 0 0 0 0 0 0 0
0 3 3 3 3 3 3 0 0 0 0 0 0 0 0 0 0 0 0 0 0 0 0 0 0 0 0 0 0 0 0 0 0 0 0 0 0 0 0 0 0 0 0
3 3 3 3 3 3 3 0 0 0 0 0 0 0 0 0 0 0 0 0 0 0 0 0 0 0 0 0 0 0 0 0 0 0 0 0 0 0 0 0 0 0 0
3 3 3 3 3 3 0 0 0 0 0 0 0 0 0 0 0 0 0 0 0 0 0 0 0 0 0 0 0 0 0 0 0 0 0 0 0 0 0 0 0 0 0
3 3 3 3 0 0 0 0 0 0 0 0 0 0 0 0 0 0 0 0 0 0 0 0 0 0 0 0 0 0 0 0 0 0 0 0 0 0 0 0 0 0 0
0 0 0 0 0 0 0 0 0 0 0 0 0 0 0 0 0 0 0 0 0 0 0 0 0 0 0 0 0 0 0 0 0 0 0 0 0 0 0 0 0 0 0
0 0 0 0 0 0 0 0 0 0 0 0 0 0 0 0 0 0 0 0 0 0 0 0 0 0 0 0 0 0 0 0 0 0 0 0 0 0 0 0 0 0 0
0 0 0 0 0 0 0 0 0 0 0 0 0 0 0 0 0 0 0 0 0 0 0 0 0 0 0 0 0 0 0 0 0 0 0 0 0 0 0 0 0 0 0
0 0 0 0 0 0 0 0 0 0 0 0 0 0 0 0 0 0 0 0 0 0 0 0 0 0 0 0 0 0 0 0 0 0 0 0 0 0 0 0 0 0 0
0 0 0 0 0 0 0 0 0 0 0 0 0 0 0 0 0 0 0 0 0 0 0 0 0 0 0 0 0 0 0 0 0 0 0 0 0 0 0 0 0 0 0
0 0 0 0 0 0 0 0 0 0 0 0 0 0 0 0 0 0 0 0 0 0 0 0 0 0 0 0 0 0 0 0 0 0 0 0 0 0 0 0 0 0 0
0 0 0 0 0 0 0 0 0 0 0 0 0 0 0 0 0 0 0 0 0 0 0 0 0 0 0 0 0 0 0 0 0 0 0 0 0 0 0 0 0 0 0
0 0 0 0 0 0 0 0 0 0 0 0 0 0 0 0 0 0 0 0 0 0 0 0 0 0 0 0 0 0 0 0 0 0 0 0 0 0 0 0 0 0 0
0 0 0 0 0 0 0 0 0 0 0 0 0 0 0 0 0 0 0 0 0 0 0 0 0 0 0 0 0 0 0 0 0 0 0 0 0 0 0 0 0 0 0
0 0 0 0 0 0 0 0 0 0 0 0 0 0 0 0 0 0 0 0 0 0 0 0 0 0 0 0 0 0 0 0 0 0 0 0 0 0 0 0 0 0 0
0 0 0 0 0 0 0 0 0 0 0 0 0 0 0 0 0 0 0 0 0 0 0 0 0 0 0 0 0 0 0 0 0 0 0 0 0 0 0 0 0 0 0
0 0 0 0 0 0 0 0 0 0 0 0 0 0 0 0 0 0 0 0 0 0 0 0 0 0 0 0 0 0 0 0 0 0 0 0 0 0 0 0 0 0 0
Height
5796 5797 5798 5798 5798 5798 5799 5799 5799 5799 5799 5799 5799 5799 5799 5799 5799 5799 5799 5799 5798 5798 5798 5797 5796 5796 5795 5795 5794 5793 5792 5791 5789 5789 5788 5787 5786 5785 5784 5783 5783 5782 5781
5788 5789 5790 5790 5791 5791 5792 5792 5792 5792 5792 5792 5792 5792 5791 5791 5792 5792 5792 5792 5792 5791 5791 5790 5790 5790 5789 5789 5788 5787 5786 5785 5783 5782 5781 5781 5780 5779 5777 5777 5776 5775 5774
5780 5781 5782 5783 5783 5783 5784 5784 5784 5784 5784 5784 5784 5784 5783 5784 5784 5785 5785 5785 5785 5784 5784 5783 5783 5783 5783 5782 5781 5780 5779 5778 5777 5776 5775 5774 5773 5771 5770 5769 5768 5768 5767
5771 5773 5774 5775 5776 5776 5776 5776 5776 5776 5776 5776 5776 5776 5776 5776 5776 5777 5777 5777 5777 5777 5776 5776 5776 5776 5775 5775 5774 5773 5772 5771 5770 5769 5768 5766 5765 5764 5762 5762 5761 5760 5759
5763 5764 5765 5766 5767 5768 5768 5768 5768 5768 5767 5768 5768 5768 5768 5768 5769 5769 5769 5769 5769 5769 5769 5768 5768 5768 5768 5767 5766 5765 5764 5763 5762 5761 5760 5758 5757 5756 5754 5753 5753 5752 5751
5753 5755 5756 5758 5759 5759 5759 5759 5759 5759 5760 5760 5760 5760 5760 5760 5761 5761 5761 5761 5761 5761 5761 5760 5760 5760 5760 5759 5759 5758 5757 5756 5754 5753 5752 5750 5749 5747 5746 5745 5744 5743 5742
5743 5745 5746 5748 5749 5750 5751 5751 5751 5751 5751 5751 5752 5752 5752 5752 5752 5753 5753 5753 5753 5753 5753 5752 5752 5752 5752 5751 5751 5750 5750 5748 5747 5746 5744 5743 5741 5739 5738 5737 5735 5734 5733
5733 5735 5736 5738 5739 5740 5741 5742 5743 5743 5743 5743 5743 5743 5743 5744 5744 5744 5744 5745 5745 5745 5745 5744 5744 5744 5744 5744 5743 5743 5742 5741 5739 5738 5736 5735 5733 5731 5730 5728 5726 5724 5723
5723 5724 5727 5728 5730 5731 5733 5733 5734 5734 5735 5735 5735 5735 5735 5735 5736 5736 5736 5737 5737 5736 5736 5736 5736 5736 5736 5736 5736 5735 5734 5733 5731 5730 5728 5726 5725 5723 5721 5718 5716 5715 5713
5712 5714 5716 5718 5720 5722 5723 5724 5725 5725 5726 5727 5727 5727 5727 5727 5727 5728 5729 5728 5728 5728 5728 5728 5728 5728 5728 5728 5727 5727 5726 5724 5723 5721 5720 5718 5716 5714 5711 5709 5706 5704 5702
5701 5703 5706 5708 5710 5712 5713 5715 5716 5717 5718 5718 5718 5719 5718 5718 5718 5718 5719 5720 5719 5720 5720 5720 5720 5720 5720 5719 5719 5718 5717 5716 5714 5712 5710 5709 5706 5704 5701 5699 5696 5694 5692
5691 5693 5696 5698 5700 5702 5704 5705 5706 5708 5709 5709 5710 5709 5709 5709 5709 5709 5710 5710 5711 5711 5711 5711 5711 5711 5711 5711 5710 5709 5708 5706 5705 5703 5701 5699 5697 5694 5691 5689 5686 5684 5681
5681 5683 5685 5688 5690 5692 5694 5695 5696 5698 5699 5700 5700 5700 5700 5700 5700 5700 5700 5701 5702 5702 5702 5703 5702 5702 5702 5701 5700 5699 5698 5697 5695 5693 5691 5689 5686 5684 5681 5678 5676 5674 5671
5670 5672 5675 5677 5679 5681 5683 5685 5686 5688 5689 5690 5690 5691 5690 5690 5690 5691 5691 5691 5692 5693 5693 5694 5693 5693 5692 5691 5690 5689 5688 5687 5685 5683 5681 5678 5675 5673 5670 5668 5666 5664 5661
5659 5661 5664 5666 5668 5671 5673 5675 5676 5678 5679 5680 5681 5681 5681 5681 5681 5681 5681 5681 5682 5682 5684 5684 5684 5683 5682 5681 5680 5679 5677 5676 5674 5672 5669 5667 5665 5662 5659 5657 5655 5653 5651
5648 5650 5653 5656 5658 5660 5662 5664 5666 5667 5668 5669 5670 5671 5671 5671 5671 5671 5671 5671 5671 5672 5672 5674 5673 5672 5671 5671 5669 5668 5666 5664 5662 5660 5658 5655 5653 5651 5648 5646 5644 5642 5640
5637 5639 5642 5644 5647 5649 5651 5653 5655 5656 5658 5659 5660 5660 5661 5661 5661 5661 5661 5661 5661 5661 5661 5662 5662 5661 5660 5659 5658 5656 5654 5652 5650 5648 5646 5644 5642 5639 5637 5635 5633 5631 5629
5625 5628 5630 5633 5636 5638 5640 5642 5644 5646 5647 5648 5649 5650 5650 5650 5650 5650 5651 5651 5651 5650 5650 5650 5650 5650 5649 5648 5646 5645 5643 5641 5639 5637 5635 5632 5630 5628 5626 5624 5622 5620 5618
5614 5617 5620 5622 5625 5627 5629 5631 5633 5635 5636 5637 5638 5639 5640 5640 5640 5640 5640 5640 5639 5639 5639 5638 5638 5638 5638 5637 5635 5633 5631 5629 5627 5625 5623 5621 5619 5617 5615 5613 5611 5609 5607
5603 5606 5609 5611 5614 5616 5618 5620 5622 5623 5625 5626 5627 5628 5629 5629 5629 5629 5629 5629 5628 5628 5628 5627 5627 5627 5627 5625 5624 5622 5620 5618 5616 5614 5612 5611 5609 5607 5605 5603 5601 5599 5597
5593 5595 5597 5600 5603 5605 5607 5609 5610 5612 5613 5614 5615 5617 5617 5618 5618 5618 5618 5618 5618 5617 5617 5616 5616 5616 5616 5615 5613 5611 5610 5608 5606 5604 5602 5600 5598 5597 5595 5592 5590 5589 5587
5583 5584 5587 5589 5592 5594 5596 5597 5598 5600 5601 5602 5604 5605 5606 5606 5607 5607 5607 5607 5607 5606 5606 5605 5605 5605 5604 5604 5602 5601 5599 5598 5596 5594 5591 5590 5588 5586 5585 5583 5581 5579 5577
5572 5574 5576 5579 5581 5583 5585 5586 5587 5588 5589 5591 5592 5593 5594 5595 5595 5596 5596 5596 5596 5595 5595 5595 5594 5593 5593 5593 5592 5590 5588 5586 5585 5583 5581 5580 5578 5576 5575 5573 5571 5569 5567
5562 5564 5566 5568 5570 5572 5573 5575 5575 5576 5578 5579 5580 5581 5582 5583 5584 5584 5584 5585 5585 5585 5585 5584 5584 5583 5582 5581 5580 5579 5578 5576 5575 5573 5571 5570 5568 5567 5565 5563 5561 5560 5558
5553 5555 5556 5558 5560 5562 5563 5564 5564 5565 5567 5568 5569 5570 5570 5571 5573 5573 5574 5574 5575 5575 5574 5573 5573 5572 5571 5570 5569 5568 5567 5566 5565 5564 5562 5560 5559 5557 5555 5554 5552 5551 5549
5543 5545 5546 5548 5549 5551 5552 5553 5554 5555 5556 5557 5558 5559 5559 5560 5561 5561 5562 5563 5564 5564 5564 5563 5563 5562 5561 5559 5558 5557 5556 5555 5554 5554 5552 5551 5549 5547 5547 5545 5543 5542 5540
Wind_Speed
34 33 33 32 31 31 31 30 30 31 31 30 30 30 30 30 29 29 28 28 28 27 27 27 27 27 27 27 27 27 27 27 27 26 26 26 27 28 28 29 29 29 29
34 34 34 33 32 31 31 31 32 32 32 31 31 31 31 31 31 30 29 29 29 28 28 28 28 28 29 28 28 28 28 28 28 28 28 28 29 29 29 30 30 30 30
35 35 34 33 32 32 32 33 33 33 33 32 31 31 32 32 32 32 31 30 30 30 29 30 29 29 30 30 30 30 30 30 29 29 29 30 30 31 31 31 32 32 32
36 36 36 35 34 34 34 33 33 33 33 33 32 32 33 32 33 33 32 32 32 32 31 30 30 30 31 31 30 31 31 31 31 31 30 31 31 32 32 33 33 33 33
37 37 37 36 36 35 35 34 34 34 33 33 34 33 33 34 33 33 33 33 32 32 31 31 31 30 31 31 32 32 32 32 31 31 31 31 32 32 33 33 34 34 35
38 39 38 38 37 36 35 35 34 33 33 34 34 33 34 34 34 34 33 33 34 34 33 32 31 31 31 31 32 32 31 31 31 31 31 32 32 33 33 34 35 36 36
40 40 39 39 37 36 35 35 34 33 33 34 34 34 34 35 35 35 34 33 33 33 33 32 32 31 31 31 31 31 31 31 31 31 32 32 33 34 34 35 36 36 37
41 40 40 39 38 37 36 36 35 34 34 34 35 35 35 34 34 35 35 34 33 33 32 32 32 32 31 31 31 32 32 32 32 33 33 34 35 35 35 36 37 37 37
42 41 40 40 39 39 37 37 36 35 35 35 35 35 34 34 34 35 35 35 34 32 32 32 32 32 32 32 32 33 33 33 34 34 35 35 36 36 37 37 38 39 39
43 42 40 39 39 40 39 37 38 37 37 36 35 35 34 34 35 35 34 34 34 33 33 33 32 32 32 33 33 33 34 35 35 35 36 36 37 37 38 39 39 40 40
43 42 42 41 40 40 40 40 39 39 38 37 37 36 35 35 35 35 35 35 34 33 33 33 33 33 33 34 35 35 35 36 36 37 37 38 39 39 40 40 40 40 40
43 43 42 42 41 41 40 39 40 40 40 39 38 38 37 36 36 36 35 34 35 35 34 34 34 34 35 36 36 36 37 37 38 38 39 39 40 41 41 41 40 40 40
44 43 42 42 42 42 40 39 40 40 40 40 39 38 38 37 36 36 35 35 36 36 35 35 35 36 37 37 38 38 38 39 39 39 40 40 40 41 41 40 40 40 40
44 44 42 42 41 42 42 41 40 40 40 39 39 38 38 37 36 36 36 37 37 37 37 36 37 38 38 39 39 39 39 40 40 40 40 41 41 41 40 40 40 40 40
45 45 44 43 42 42 41 41 40 40 40 40 39 39 39 38 38 38 38 38 39 39 39 39 38 38 39 40 40 41 41 42 42 42 42 42 41 41 41 41 41 40 40
46 45 44 44 44 43 41 42 41 39 39 40 40 40 40 39 39 39 40 40 40 41 41 40 39 39 39 41 42 42 42 42 42 42 42 42 42 41 42 42 42 41 41
45 46 45 44 44 44 43 42 41 41 40 41 41 41 41 41 40 40 41 41 41 41 42 42 42 41 41 41 42 42 43 42 43 42 42 42 42 42 42 42 41 42 41
44 45 45 45 44 44 43 43 43 42 41 41 42 42 42 42 42 41 42 42 42 41 42 42 42 42 42 42 42 42 42 41 41 42 42 41 40 40 40 40 40 41 40
45 44 43 44 45 44 44 44 44 44 43 43 43 42 42 41 40 40 41 42 42 42 41 42 42 42 42 42 42 42 41 40 41 41 41 40 40 39 39 39 38 38 38
43 42 42 43 44 43 43 44 44 44 44 43 43 42 42 42 41 40 41 41 41 42 41 41 41 40 40 39 40 40 41 40 40 40 40 40 39 38 38 38 37 36 36
42 41 41 41 41 41 41 42 43 43 43 43 43 42 42 42 42 41 40 39 40 41 41 40 40 39 39 38 39 39 40 40 40 40 39 38 37 37 37 36 36 36 35
41 42 41 41 41 40 40 40 41 41 41 41 41 42 43 42 42 41 41 40 40 40 40 40 40 39 39 39 39 39 39 39 39 39 38 37 36 36 36 35 35 35 35
39 41 41 40 41 40 39 39 41 41 41 41 41 42 42 42 42 41 41 40 40 39 39 39 38 38 39 39 39 38 38 38 37 37 36 35 35 35 35 35 35 35 35
38 39 39 39 39 39 40 40 40 40 41 42 42 41 41 41 41 40 40 39 38 37 37 37 37 38 38 38 38 37 37 37 36 36 35 34 34 34 35 34 34 35 35
37 38 38 38 39 39 40 40 40 40 39 39 40 40 40 40 39 39 38 38 37 36 36 37 37 37 37 38 38 38 37 36 36 36 36 35 34 34 34 33 33 34 33
36 37 37 38 39 38 38 39 38 38 38 38 38 38 38 38 39 39 38 38 37 36 36 37 37 37 37 37 38 38 38 36 35 35 35 34 33 33 33 33 33 32 33
Wind_Direction
259 260 262 263 264 263 263 264 265 266 267 268 269 269 267 266 267 267 268 267 268 270 271 272 273 275 275 277 279 280 282 283 282 281 281 281 280 279 278 278 277 278 279
258 260 260 261 262 262 264 264 265 266 266 267 267 267 267 266 265 265 267 268 267 269 271 271 271 272 274 276 278 279 281 282 281 281 281 281 281 281 279 278 278 278 279
257 258 258 259 260 262 263 264 265 265 265 265 266 266 266 264 264 264 265 267 267 267 270 270 269 271 272 274 276 278 280 281 282 281 281 281 282 281 280 279 279 279 279
256 257 257 258 260 262 263 264 265 264 264 264 264 265 264 263 263 264 264 265 267 269 270 270 270 271 272 274 276 278 280 281 282 282 282 282 282 281 281 280 281 280 281
256 256 256 258 260 262 263 265 264 264 264 264 264 264 263 262 263 262 263 265 267 270 271 271 271 272 272 274 276 277 278 279 281 281 282 282 281 281 281 281 281 281 281
256 256 256 257 260 262 263 264 264 262 263 264 265 265 264 263 261 261 263 266 268 270 272 274 272 271 271 272 273 276 277 278 280 281 281 281 282 282 282 281 281 282 282
256 256 256 257 259 261 263 264 263 262 263 264 265 265 265 264 261 262 264 266 269 271 272 273 272 270 269 270 273 275 276 277 279 280 280 281 283 284 283 282 282 282 283
256 256 255 256 257 259 262 263 262 262 263 263 265 266 265 264 264 263 264 265 269 272 271 270 269 268 268 269 271 274 276 278 279 279 280 282 284 285 285 283 283 283 283
255 256 255 255 255 257 260 261 260 261 261 264 265 267 267 266 263 263 263 265 267 270 270 269 268 268 269 271 272 275 277 280 280 279 281 283 285 285 286 285 284 284 283
254 254 253 254 256 258 258 259 259 260 262 264 266 268 268 268 265 263 265 265 265 267 268 268 268 270 270 271 273 276 278 280 282 282 282 283 285 286 287 287 286 285 283
254 254 254 253 255 256 256 257 259 259 261 263 265 268 269 268 267 265 266 265 264 265 267 267 267 269 270 271 273 276 278 281 283 284 284 284 284 286 286 287 288 286 284
254 252 252 254 254 255 255 258 260 260 260 262 265 268 268 268 267 266 266 263 263 265 266 267 267 270 271 272 274 276 278 281 283 284 284 284 285 285 286 286 287 286 285
253 251 253 254 253 254 254 257 259 260 261 262 264 266 267 268 268 266 265 264 264 264 265 267 269 271 273 274 275 277 279 281 283 283 284 284 285 285 285 284 285 286 285
252 252 253 253 254 252 254 254 257 259 260 260 262 265 267 267 267 266 265 265 264 264 265 266 269 270 273 275 276 278 279 281 282 283 284 285 285 284 283 283 283 284 285
252 252 253 252 252 252 253 254 257 259 259 260 262 265 266 267 268 267 267 267 266 266 266 268 269 271 273 275 276 278 279 280 282 283 284 284 284 283 282 282 282 283 284
252 252 252 252 253 253 254 255 255 257 258 259 262 264 265 266 267 268 267 267 268 267 267 268 270 272 275 276 277 278 279 280 282 282 282 283 283 282 282 282 282 283 284
252 251 252 253 254 253 254 254 256 257 259 260 261 263 264 265 267 268 267 267 268 269 268 269 270 272 275 277 278 279 279 280 281 283 283 283 283 282 282 282 282 283 283
252 252 252 253 253 253 253 253 255 257 259 260 261 262 263 265 266 268 268 268 268 269 270 270 271 272 274 277 278 279 280 281 282 283 283 282 282 282 282 282 282 283 283
252 253 252 253 254 253 253 253 255 257 259 261 262 262 262 264 266 268 267 267 268 269 270 271 272 272 273 276 277 278 280 281 283 283 283 282 281 282 282 283 284 283 282
252 253 253 254 255 254 255 255 256 258 261 262 262 263 263 264 266 267 268 269 269 269 269 271 272 271 272 275 278 278 279 281 282 283 282 282 281 281 282 283 283 283 283
253 253 253 255 254 255 255 256 257 260 261 261 262 262 263 265 266 267 269 270 270 269 270 271 272 271 272 275 277 279 280 281 282 282 281 280 280 281 282 282 282 282 282
255 254 253 255 255 255 256 257 258 261 261 261 261 262 263 265 266 267 267 269 269 269 270 270 272 272 273 273 276 278 279 280 280 281 280 280 281 281 281 280 280 281 282
257 256 256 256 255 255 257 259 261 261 261 261 262 262 263 263 263 264 266 267 269 269 269 271 272 272 273 273 275 277 278 278 279 279 278 279 280 281 280 280 280 279 281
256 256 256 257 256 257 259 261 264 263 262 262 262 262 262 262 262 263 265 266 267 268 269 271 272 273 274 275 275 275 276 276 277 277 277 278 279 280 280 280 281 282 282
256 255 256 256 256 257 259 261 263 263 263 263 263 262 262 262 262 263 264 264 265 267 269 271 271 273 275 276 276 274 274 275 274 275 277 277 278 279 280 281 282 283 282
256 256 257 257 257 257 258 260 261 263 263 263 263 263 262 261 260 261 261 263 264 267 269 271 271 273 275 276 275 274 273 273 275 276 276 276 278 278 280 281 282 282 282